{"data":{"norad_id":28526,"epoch":"2026-05-25T05:05:58.843104Z","epoch_age_seconds":70772,"freshness":"FRESH","line1":"1 28526U 05003A   26145.21248661 -.00000253  00000+0  00000+0 0  9998","line2":"2 28526   6.3948  70.7303 0003079 345.7272 225.3873  1.00271796 52925","mean_motion":1.00271796,"eccentricity":0.0003079,"inclination_deg":6.3948,"raan_deg":70.7303,"arg_perigee_deg":345.7272,"mean_anomaly_deg":225.3873,"bstar":0,"rev_number":5292,"period_min":1436.0967464869,"perigee_km":35773.60935747,"apogee_km":35799.574397513,"semimajor_km":42164.728877492,"source":"CELESTRAK","updated_at":"2026-05-25T13:38:14.473630Z"}}